AC0ID-13 Weather Reports


time (UTC)temp
C
wind
direction
speed
KPH
gust
KPH
rain 1hr
cm
rain 24hr
cm
rain mn
cm
humidity
%
barometer
mb
20260504081511 8 209 0.0 1.6 0.00 0.00 0.00 60 1000.4
20260504081003 8 224 0.0 3.2 0.00 0.00 0.00 60 1000.6
20260504080503 8 226 0.0 4.8 0.00 0.00 0.00 61 1000.8
20260504050504 8 311 0.0 0.0 0.00 0.00 0.00 56 1003.6
20260504050005 8 311 0.0 0.0 0.00 0.00 0.00 56 1003.7
20260504045503 8 311 0.0 0.0 0.00 0.00 0.00 55 1003.7
20260504045003 9 311 0.0 0.0 0.00 0.00 0.00 55 1003.6
20260504044510 9 311 0.0 0.0 0.00 0.00 0.00 55 1003.7
20260504044004 9 311 0.0 0.0 0.00 0.00 0.00 54 1003.8
20260504043503 9 311 0.0 0.0 0.00 0.00 0.00 54 1003.8
20260504043009 9 311 0.0 0.0 0.00 0.00 0.00 54 1003.9
20260504042503 10 311 0.0 0.0 0.00 0.00 0.00 53 1004.0
20260504042003 10 311 0.0 0.0 0.00 0.00 0.00 53 1004.0
20260504041507 10 311 0.0 0.0 0.00 0.00 0.00 53 1004.2
20260504041005 10 311 0.0 0.0 0.00 0.00 0.00 52 1004.2
20260504040505 10 311 0.0 0.0 0.00 0.00 0.00 52 1004.3
20260504040003 10 311 0.0 0.0 0.00 0.00 0.00 51 1004.4
20260504035503 10 311 0.0 0.0 0.00 0.00 0.00 51 1004.5
20260504035006 11 311 0.0 0.0 0.00 0.00 0.00 50 1004.6
20260504034502 11 311 0.0 0.0 0.00 0.00 0.00 50 1004.6
20260504034002 11 311 0.0 0.0 0.00 0.00 0.00 49 1004.7
20260504033503 11 311 0.0 0.0 0.00 0.00 0.00 49 1004.6
20260504033006 11 311 0.0 0.0 0.00 0.00 0.00 48 1004.6
20260504032503 11 311 0.0 0.0 0.00 0.00 0.00 48 1004.7
20260504032005 12 311 0.0 0.0 0.00 0.00 0.00 47 1004.8
20260504031509 12 311 0.0 1.6 0.00 0.00 0.00 46 1005.0
20260504031003 12 311 0.0 1.6 0.00 0.00 0.00 46 1005.0
20260504030503 12 311 0.0 1.6 0.00 0.00 0.00 46 1005.1
20260504030030 12 311 0.0 0.0 0.00 0.00 0.00 46 1005.2
20260504025512 12 311 0.0 0.0 0.00 0.00 0.00 45 1005.2
20260504025002 13 311 0.0 0.0 0.00 0.00 0.00 45 1005.3
20260504024509 13 311 0.0 0.0 0.00 0.00 0.00 45 1005.1
20260504024003 13 311 0.0 0.0 0.00 0.00 0.00 44 1005.2
20260504023506 13 311 0.0 0.0 0.00 0.00 0.00 43 1005.2
20260504023003 13 311 0.0 0.0 0.00 0.00 0.00 42 1005.1
20260504022502 13 311 0.0 0.0 0.00 0.00 0.00 42 1005.1
20260504022003 14 311 0.0 0.0 0.00 0.00 0.00 41 1005.1
20260504021504 14 311 0.0 0.0 0.00 0.00 0.00 40 1005.1
20260504021004 15 311 0.0 0.0 0.00 0.00 0.00 40 1005.1
20260504020505 15 311 0.0 0.0 0.00 0.00 0.00 39 1005.1
20260504020008 15 311 0.0 0.0 0.00 0.00 0.00 39 1005.0
20260504015503 15 311 0.0 0.0 0.00 0.00 0.00 39 1005.1
20260504015004 15 311 0.0 0.0 0.00 0.00 0.00 38 1005.0
20260504014531 16 311 0.0 0.0 0.00 0.00 0.00 37 1005.0
20260504014008 16 311 0.0 0.0 0.00 0.00 0.00 36 1004.9
20260504013503 16 311 0.0 0.0 0.00 0.00 0.00 36 1004.9
20260504013013 17 311 0.0 0.0 0.00 0.00 0.00 35 1004.9
20260504012508 17 311 0.0 0.0 0.00 0.00 0.00 34 1004.9
20260504012003 17 311 0.0 0.0 0.00 0.00 0.00 33 1004.9
20260504011508 17 311 0.0 0.0 0.00 0.00 0.00 33 1004.9
20260504011007 18 311 0.0 0.0 0.00 0.00 0.00 32 1004.9
20260504010503 18 311 0.0 1.6 0.00 0.00 0.00 32 1004.9
20260504010004 18 311 0.0 1.6 0.00 0.00 0.00 31 1004.8
20260504005503 18 311 0.0 1.6 0.00 0.00 0.00 31 1004.8
20260504005006 18 306 0.0 3.2 0.00 0.00 0.00 31 1004.8
20260504004510 18 306 0.0 4.8 0.00 0.00 0.00 30 1004.9
20260504004006 18 308 0.0 8.0 0.00 0.00 0.00 30 1004.9
20260504003507 19 360 0.0 8.0 0.00 0.00 0.00 30 1004.9
20260504003026 19 304 0.0 6.4 0.00 0.00 0.00 30 1004.9
20260504002506 19 317 1.6 6.4 0.00 0.00 0.00 29 1004.9
20260504002007 19 5 0.0 3.2 0.00 0.00 0.00 29 1005.0
20260504001517 20 352 0.0 6.4 0.00 0.00 0.00 28 1005.0
20260504001007 20 265 1.6 8.0 0.00 0.00 0.00 28 1005.0
20260504000503 20 16 1.6 9.7 0.00 0.00 0.00 28 1005.0
20260504000020 20 306 1.6 9.7 0.00 0.00 0.00 28 1005.0
20260503235509 20 37 1.6 8.0 0.00 0.00 0.00 28 1005.0
20260503235005 20 338 1.6 9.7 0.00 0.00 0.00 29 1005.0
20260503234525 20 284 1.6 11.3 0.00 0.00 0.00 30 1004.9
20260503234004 20 304 1.6 12.9 0.00 0.00 0.00 29 1005.0
20260503233504 20 255 3.2 12.9 0.00 0.00 0.00 28 1005.1
20260503233012 20 340 4.8 12.9 0.00 0.00 0.00 27 1005.1
20260503232507 20 344 0.0 8.0 0.00 0.00 0.00 27 1005.1
20260503232006 20 342 1.6 14.5 0.00 0.00 0.00 27 1005.1
20260503231512 21 40 1.6 14.5 0.00 0.00 0.00 26 1005.3
20260503231007 21 334 4.8 14.5 0.00 0.00 0.00 26 1005.3
20260503230508 21 310 3.2 14.5 0.00 0.00 0.00 25 1005.2
20260503230020 21 261 1.6 14.5 0.00 0.00 0.00 25 1005.2
20260503225509 21 39 3.2 11.3 0.00 0.00 0.00 25 1005.1
20260503225005 22 112 1.6 8.0 0.00 0.00 0.00 25 1005.0
20260503224521 22 352 1.6 11.3 0.00 0.00 0.00 26 1005.0
20260503224009 22 237 3.2 11.3 0.00 0.00 0.00 26 1004.9
20260503223506 22 313 3.2 12.9 0.00 0.00 0.00 26 1005.0
20260503223010 22 248 1.6 14.5 0.00 0.00 0.00 26 1005.0
20260503222507 22 19 3.2 14.5 0.00 0.00 0.00 26 1005.1
20260503222006 23 310 3.2 12.9 0.00 0.00 0.00 27 1005.0
20260503221514 23 327 1.6 8.0 0.00 0.00 0.00 26 1005.0
20260503221008 23 119 1.6 9.7 0.00 0.00 0.00 26 1005.0
20260503220511 23 274 1.6 12.9 0.00 0.00 0.00 26 1004.9
20260503220016 23 284 3.2 17.7 0.00 0.00 0.00 26 1005.0
20260503215511 23 252 4.8 17.7 0.00 0.00 0.00 25 1005.1
20260503215007 23 352 3.2 12.9 0.00 0.00 0.00 25 1005.1
20260503214513 23 53 3.2 19.3 0.00 0.00 0.00 25 1005.0
20260503214007 23 236 3.2 19.3 0.00 0.00 0.00 26 1005.2
20260503213508 23 330 3.2 16.1 0.00 0.00 0.00 26 1005.0
20260503213025 23 321 1.6 19.3 0.00 0.00 0.00 26 1005.1
20260503212508 23 277 3.2 19.3 0.00 0.00 0.00 27 1005.1
20260503212009 23 342 1.6 19.3 0.00 0.00 0.00 26 1005.1
20260503211514 23 25 3.2 19.3 0.00 0.00 0.00 27 1005.2
20260503211005 23 315 1.6 16.1 0.00 0.00 0.00 27 1005.2
20260503210508 23 344 3.2 19.3 0.00 0.00 0.00 27 1005.1
20260503210025 23 317 4.8 19.3 0.00 0.00 0.00 27 1005.2
20260503205507 23 298 3.2 12.9 0.00 0.00 0.00 28 1005.3
20260503205005 23 24 4.8 12.9 0.00 0.00 0.00 28 1005.3
20260503204526 23 55 1.6 22.5 0.00 0.00 0.00 30 1005.4
20260503204003 23 266 3.2 22.5 0.00 0.00 0.00 29 1005.5
20260503203505 23 210 4.8 22.5 0.00 0.00 0.00 29 1005.6
20260503203009 23 55 3.2 14.5 0.00 0.00 0.00 30 1005.6
20260503202504 23 22 0.0 14.5 0.00 0.00 0.00 30 1005.6
20260503202004 23 352 3.2 12.9 0.00 0.00 0.00 31 1005.6
20260503201512 23 108 3.2 19.3 0.00 0.00 0.00 30 1005.5
20260503201007 23 315 6.4 19.3 0.00 0.00 0.00 28 1005.6
20260503200503 23 348 3.2 16.1 0.00 0.00 0.00 29 1005.7
20260503200012 23 248 3.2 11.3 0.00 0.00 0.00 32 1005.6
20260503195511 23 134 1.6 24.1 0.00 0.00 0.00 27 1005.6
20260503195005 23 250 3.2 24.1 0.00 0.00 0.00 27 1005.6
20260503194510 23 275 4.8 24.1 0.00 0.00 0.00 28 1005.6
20260503194002 23 346 3.2 19.3 0.00 0.00 0.00 28 1005.7
20260503193504 23 290 3.2 19.3 0.00 0.00 0.00 28 1005.8
20260503193001 23 334 4.8 19.3 0.00 0.00 0.00 29 1005.8
20260503192502 23 40 3.2 19.3 0.00 0.00 0.00 28 1005.8
20260503192008 23 352 4.8 16.1 0.00 0.00 0.00 30 1005.7
20260503191503 23 288 1.6 16.1 0.00 0.00 0.00 32 1005.7
20260503191006 23 332 4.8 16.1 0.00 0.00 0.00 31 1005.9
20260503190508 23 233 3.2 11.3 0.00 0.00 0.00 33 1005.8
20260503190011 23 5 3.2 11.3 0.00 0.00 0.00 32 1005.9
20260503185504 23 250 3.2 9.7 0.00 0.00 0.00 32 1005.8
20260503185007 22 54 3.2 14.5 0.00 0.00 0.00 32 1005.8
20260503184532 22 5 3.2 16.1 0.00 0.00 0.00 32 1005.8
20260503184004 22 297 4.8 19.3 0.00 0.00 0.00 32 1006.0
20260503183506 22 292 4.8 19.3 0.00 0.00 0.00 32 1006.1
20260503183017 22 310 4.8 17.7 0.00 0.00 0.00 36 1006.0
20260503182510 22 283 3.2 14.5 0.00 0.00 0.00 35 1005.9
20260503182004 22 318 4.8 12.9 0.00 0.00 0.00 36 1006.0
20260503181506 22 61 1.6 19.3 0.00 0.00 0.00 38 1006.1
20260503181005 22 38 4.8 19.3 0.00 0.00 0.00 37 1006.1
20260503180502 21 330 4.8 22.5 0.00 0.00 0.00 37 1006.2
20260503180018 21 57 4.8 22.5 0.00 0.00 0.00 36 1006.3
20260503175505 21 336 3.2 17.7 0.00 0.00 0.00 38 1006.2
20260503175010 21 18 6.4 17.7 0.00 0.00 0.00 38 1006.3
20260503174508 21 54 4.8 17.7 0.00 0.00 0.00 37 1006.2
20260503174008 21 352 4.8 17.7 0.00 0.00 0.00 37 1006.3
20260503173508 21 344 6.4 17.7 0.00 0.00 0.00 37 1006.4
20260503173020 21 277 4.8 19.3 0.00 0.00 0.00 37 1006.4
20260503172508 21 291 6.4 24.1 0.00 0.00 0.00 38 1006.4
20260503172006 21 257 8.0 24.1 0.00 0.00 0.00 37 1006.3
20260503171521 21 312 6.4 19.3 0.00 0.00 0.00 40 1006.4
20260503171004 21 246 6.4 19.3 0.00 0.00 0.00 39 1006.2
20260503170503 20 9 3.2 19.3 0.00 0.00 0.00 41 1006.2
20260503151013 17 222 1.6 6.4 0.00 0.00 0.00 43 1005.9
20260503150503 17 352 1.6 11.3 0.00 0.00 0.00 43 1005.9
20260503131003 11 246 4.8 16.1 0.00 0.00 0.00 50 1006.0
20260503130503 11 257 4.8 16.1 0.00 0.00 0.00 50 1006.0
20260503110502 11 163 3.2 17.7 0.00 0.00 0.00 50 1005.6
20260503090504 12 138 3.2 16.1 0.00 0.00 0.00 45 1006.9